Date String (YYYY-MM-DD hh:mm:ss) UTC,Instrument flags,Ambient pressure (hPa),Sample flow (lpm),Bypass flow (lpm),Sample temperature (°C),Ambient temperature (°C),ASC tube jacket temperature (°C),LED temperature (°C),Box temperature (°C),Sample RH (%),Span deviation,Mass concentration (μg/m³),Mass concentration (μg/m³),Mass concentration (μg/m³)
DateTimeUTC,F1_M11,P_M11,Q1_M11,Q2_M11,T1_M11,T2_M11,T3_M11,T4_M11,T5_M11,U1_M11,ZSPAN_M11,X0_M11,X2_M11,X1_M11
2022-06-28 03:00:00,,0833.8,5.00,0.00,29.5,28.3,00.0,38.2,31.4,19.6,0000.0,0007.62,0002.32,0001.66
2022-06-28 03:01:00,,0833.9,4.99,0.00,29.5,27.6,00.0,38.2,31.3,19.9,0000.0,0007.74,0002.41,0001.68
2022-06-28 03:02:00,,0833.9,5.00,0.00,29.4,27.4,00.0,38.1,31.2,20.2,0000.0,0007.94,0002.50,0001.71
2022-06-28 03:03:00,,0833.9,5.00,0.00,29.4,27.4,00.0,38.1,31.1,20.5,0000.0,0008.01,0002.55,0001.74
2022-06-28 03:04:00,,0833.9,5.00,0.00,29.3,27.4,00.0,38.1,31.1,20.7,0000.0,0007.25,0002.53,0001.78
2022-06-28 03:05:00,,0833.9,4.99,0.00,29.3,27.6,00.0,38.1,31.1,20.9,0000.0,0007.21,0002.56,0001.80
2022-06-28 03:06:00,,0833.9,4.99,0.00,29.3,27.7,00.0,38.1,31.2,21.2,0000.0,0007.97,0002.68,0001.84
2022-06-28 03:07:00,,0833.9,5.00,0.00,29.3,27.8,00.0,38.1,31.2,21.6,0000.0,0008.02,0002.77,0001.89
2022-06-28 03:08:00,,0834.0,5.01,0.00,29.3,28.0,00.0,38.1,31.2,21.8,0000.0,0008.26,0002.88,0001.94
2022-06-28 03:09:00,,0834.0,4.99,0.00,29.3,28.1,00.0,38.1,31.3,22.0,0000.0,0009.14,0002.97,0001.98
2022-06-28 03:10:00,,0834.0,5.00,0.00,29.4,28.2,00.0,38.2,31.3,22.2,0000.0,0009.83,0003.08,0002.01
2022-06-28 03:11:00,,0834.0,4.99,0.00,29.4,28.3,00.0,38.2,31.3,22.3,0000.0,0009.63,0003.13,0002.03
2022-06-28 03:12:00,,0834.0,5.00,0.00,29.4,28.3,00.0,38.2,31.3,22.4,0000.0,0010.15,0003.19,0002.07
2022-06-28 03:13:00,,0834.0,5.02,0.00,29.4,28.4,00.0,38.2,31.4,22.6,0000.0,0011.17,0003.26,0002.09
2022-06-28 03:14:00,,0834.1,5.00,0.00,29.5,28.5,00.0,38.2,31.4,22.7,0000.0,0011.74,0003.32,0002.12
2022-06-28 03:15:00,,0834.1,4.99,0.00,29.5,28.6,00.0,38.2,31.4,22.8,0000.0,0012.18,0003.36,0002.14
2022-06-28 03:16:00,,0834.0,5.00,0.00,29.5,28.6,00.0,38.2,31.5,22.8,0000.0,0013.27,0003.41,0002.18
2022-06-28 03:17:00,,0834.1,5.01,0.00,29.5,28.7,00.0,38.3,31.5,22.8,0000.0,0012.99,0003.43,0002.20
2022-06-28 03:18:00,,0834.2,4.99,0.00,29.6,28.7,00.0,38.3,31.5,22.9,0000.0,0012.78,0003.42,0002.23
2022-06-28 03:19:00,,0834.3,5.01,0.00,29.6,28.8,00.0,38.3,31.6,22.9,0000.0,0013.01,0003.43,0002.25
2022-06-28 03:20:00,,0834.2,5.00,0.00,29.6,28.8,00.0,38.3,31.6,23.0,0000.0,0012.41,0003.43,0002.25
2022-06-28 03:21:00,,0834.2,5.01,0.00,29.6,28.8,00.0,38.3,31.6,23.0,0000.0,0013.30,0003.43,0002.27
2022-06-28 03:22:00,,0834.3,4.99,0.00,29.7,28.9,00.0,38.4,31.7,23.0,0000.0,0013.33,0003.44,0002.31
2022-06-28 03:23:00,,0834.3,5.01,0.00,29.7,28.9,00.0,38.4,31.7,23.0,0000.0,0014.29,0003.47,0002.34
2022-06-28 03:24:00,,0834.3,5.00,0.00,29.7,28.9,00.0,38.4,31.7,23.0,0000.0,0013.71,0003.46,0002.37
2022-06-28 03:25:00,,0834.3,4.99,0.00,29.8,29.0,00.0,38.4,31.7,23.0,0000.0,0014.02,0003.46,0002.39
2022-06-28 03:26:00,,0834.3,5.00,0.00,29.8,29.0,00.0,38.5,31.8,23.0,0000.0,0014.36,0003.53,0002.43
2022-06-28 03:27:00,,0834.3,5.01,0.00,29.8,29.0,00.0,38.5,31.8,23.1,0000.0,0013.58,0003.52,0002.45
2022-06-28 03:28:00,,0834.3,5.00,0.00,29.8,28.4,00.0,38.4,31.6,23.1,0000.0,0013.24,0003.54,0002.46
2022-06-28 03:29:00,,0834.3,5.00,0.00,29.7,27.7,00.0,38.4,31.4,23.2,0000.0,0013.13,0003.54,0002.47
2022-06-28 03:30:00,,0834.3,5.00,0.00,29.6,27.5,00.0,38.4,31.3,23.3,0000.0,0012.73,0003.52,0002.48
2022-06-28 03:31:00,,0834.3,5.00,0.00,29.6,27.5,00.0,38.4,31.3,23.5,0000.0,0013.38,0003.50,0002.49
2022-06-28 03:32:00,,0834.4,4.99,0.00,29.5,27.6,00.0,38.4,31.3,23.6,0000.0,0011.77,0003.49,0002.49
2022-06-28 03:33:00,,0834.3,5.01,0.00,29.5,27.7,00.0,38.4,31.3,23.6,0000.0,0011.68,0003.52,0002.48
2022-06-28 03:34:00,,0834.4,5.00,0.00,29.5,27.9,00.0,38.3,31.3,23.6,0000.0,0010.74,0003.47,0002.47
2022-06-28 03:35:00,,0834.4,5.00,0.00,29.5,28.0,00.0,38.3,31.4,23.5,0000.0,0011.15,0003.45,0002.47
2022-06-28 03:36:00,,0834.4,4.98,0.00,29.5,28.1,00.0,38.3,31.4,23.5,0000.0,0010.81,0003.43,0002.46
2022-06-28 03:37:00,,0834.4,5.00,0.00,29.5,28.2,00.0,38.4,31.4,23.4,0000.0,0010.41,0003.36,0002.43
2022-06-28 03:38:00,,0834.4,5.01,0.00,29.5,28.3,00.0,38.4,31.4,23.3,0000.0,0010.08,0003.33,0002.42
2022-06-28 03:39:00,,0834.4,5.00,0.00,29.6,28.4,00.0,38.4,31.5,23.3,0000.0,0009.98,0003.28,0002.41
2022-06-28 03:40:00,,0834.5,5.01,0.00,29.6,28.5,00.0,38.4,31.5,23.3,0000.0,0009.98,0003.24,0002.38
2022-06-28 03:41:00,,0834.4,5.00,0.00,29.6,28.6,00.0,38.4,31.5,23.3,0000.0,0010.28,0003.28,0002.36
2022-06-28 03:42:00,,0834.4,5.00,0.00,29.6,28.6,00.0,38.4,31.6,23.3,0000.0,0009.40,0003.28,0002.35
2022-06-28 03:43:00,,0834.4,5.00,0.00,29.7,28.7,00.0,38.4,31.6,23.3,0000.0,0009.35,0003.25,0002.34
2022-06-28 03:44:00,,0834.4,5.01,0.00,29.7,28.7,00.0,38.4,31.6,23.3,0000.0,0009.32,0003.19,0002.33
2022-06-28 03:45:00,,0834.5,5.01,0.00,29.7,28.8,00.0,38.4,31.7,23.3,0000.0,0009.00,0003.21,0002.32
2022-06-28 03:46:00,,0834.5,5.00,0.00,29.7,28.8,00.0,38.5,31.7,23.2,0000.0,0008.23,0003.18,0002.31
2022-06-28 03:47:00,,0834.5,5.00,0.00,29.7,28.8,00.0,38.5,31.7,23.1,0000.0,0007.99,0003.16,0002.30
2022-06-28 03:48:00,,0834.5,5.01,0.00,29.7,28.0,00.0,38.4,31.5,23.1,0000.0,0007.66,0003.16,0002.30
2022-06-28 03:49:00,,0834.5,5.01,0.00,29.6,27.5,00.0,38.4,31.3,23.1,0000.0,0008.21,0003.18,0002.30
2022-06-28 03:50:00,,0834.6,5.00,0.00,29.6,27.4,00.0,38.3,31.3,23.2,0000.0,0008.70,0003.20,0002.29
2022-06-28 03:51:00,,0834.6,4.99,0.00,29.5,27.4,00.0,38.3,31.2,23.2,0000.0,0008.80,0003.24,0002.31
2022-06-28 03:52:00,,0834.6,5.00,0.00,29.5,27.5,00.0,38.3,31.2,23.2,0000.0,0008.49,0003.21,0002.31
2022-06-28 03:53:00,,0834.7,5.00,0.00,29.5,27.7,00.0,38.3,31.2,23.2,0000.0,0008.71,0003.16,0002.29
2022-06-28 03:54:00,,0834.7,5.01,0.00,29.5,27.8,00.0,38.3,31.3,23.2,0000.0,0009.26,0003.17,0002.28
2022-06-28 03:55:00,,0834.7,5.01,0.00,29.4,27.9,00.0,38.3,31.3,23.1,0000.0,0009.53,0003.16,0002.28
2022-06-28 03:56:00,,0834.7,5.00,0.00,29.5,28.0,00.0,38.3,31.3,23.0,0000.0,0009.82,0003.13,0002.27
2022-06-28 03:57:00,,0834.7,5.00,0.00,29.5,28.1,00.0,38.3,31.3,23.0,0000.0,0009.77,0003.16,0002.27
2022-06-28 03:58:00,,0834.7,5.00,0.00,29.5,28.2,00.0,38.3,31.4,22.9,0000.0,0009.51,0003.18,0002.26
2022-06-28 03:59:00,,0834.7,5.00,0.00,29.5,28.3,00.0,38.3,31.4,22.9,0000.0,0009.52,0003.17,0002.25
